Location: Archemont
(49.1579°N, 1.7598°E)
Time: 13:18:08
(UTC+00:00)

Transit 2A - Pass Details

Date: 13 April 2024
Orbit: 594 x 958 km, 66.7° (Epoch: 27 May)

Event Time Altitude Azimuth Distance (km) Brightness Sun altitude
Rises 12:24:18 0° 312° (NW) 3,014 8.9 49.7°
Reaches altitude 10° 12:28:56 10° 354° (N) 2,202 8.1 49.5°
Maximum altitude 12:29:49 10° 4° (N) 2,195 8.1 49.5°
Drops below altitude 10° 12:30:43 10° 14° (NNE) 2,244 8.1 49.4°
Sets 12:35:45 0° 55° (NE) 3,292 9.0 49.2°
